Total_Precipitation_Accumulation
2.25 2.53 3.35 4.21 4.80 3.69 2.69 2.20 1.88 1.64 1.35 1.02 0.81 0.83 1.14 1.61 1.93 1.97 1.81 1.60 1.02 0.92 1.01 1.42 1.69 1.59 1.46 1.38 1.37 1.35 1.30 1.28 1.32 1.34 1.32 1.20 1.21 1.29 1.35 1.31 1.21 1.19 1.13 1.10 1.05 1.06 1.06 1.02 1.05
1.96 2.70 3.90 4.80 4.08 2.88 2.46 2.00 1.76 1.46 1.11 0.84 0.72 0.64 0.74 0.61 0.59 1.05 1.94 1.87 1.05 0.83 0.94 1.33 1.78 1.70 1.59 1.55 1.54 1.54 1.41 1.25 1.22 1.17 1.13 1.09 1.10 1.17 1.28 1.34 1.23 1.23 1.15 1.08 1.02 0.99 1.05 1.05 1.09
2.25 3.13 4.34 4.42 3.12 2.42 2.39 1.83 1.38 1.01 0.74 0.78 0.80 0.68 0.73 0.85 0.96 1.45 1.85 1.34 0.97 0.85 0.94 1.44 1.90 1.73 1.62 1.59 1.67 1.61 1.44 1.29 1.17 1.09 1.06 1.02 1.08 1.14 1.18 1.13 1.12 1.19 1.19 1.15 1.18 1.14 1.17 1.16 1.22
2.51 3.58 3.95 3.36 2.56 1.97 1.71 1.44 1.11 0.97 0.67 0.45 0.62 0.80 0.70 0.94 1.11 1.34 1.30 0.94 0.74 0.75 0.85 1.28 1.82 1.68 1.52 1.46 1.59 1.52 1.38 1.36 1.26 1.17 1.15 1.12 1.22 1.40 1.30 1.15 1.17 1.19 1.26 1.18 1.21 1.23 1.26 1.29 1.31
2.78 3.56 3.55 3.19 2.38 2.03 1.52 1.20 1.01 0.98 0.79 0.53 0.53 0.82 0.90 1.22 1.22 1.22 1.13 0.94 0.74 0.75 0.79 1.07 1.56 1.54 1.40 1.36 1.43 1.42 1.40 1.40 1.27 1.20 1.21 1.21 1.27 1.46 1.56 1.42 1.37 1.37 1.36 1.26 1.21 1.20 1.18 1.25 1.35
3.19 3.27 3.34 3.14 2.57 2.25 1.75 1.29 0.94 0.85 0.71 0.58 0.57 0.84 1.12 1.54 1.44 1.38 1.19 1.10 0.97 0.84 0.75 0.89 1.33 1.41 1.32 1.34 1.36 1.34 1.31 1.26 1.12 1.12 1.19 1.21 1.23 1.36 1.51 1.52 1.51 1.49 1.40 1.37 1.33 1.30 1.25 1.27 1.27
2.96 2.92 2.66 2.27 2.41 2.54 1.83 1.16 1.06 0.99 0.91 0.80 0.59 0.88 1.21 1.63 1.50 1.21 1.19 1.27 1.36 1.21 1.01 0.95 1.05 1.10 1.18 1.29 1.32 1.43 1.47 1.28 1.10 1.03 1.05 1.09 1.10 1.19 1.30 1.39 1.42 1.39 1.40 1.41 1.36 1.34 1.34 1.38 1.33
2.41 2.47 2.24 2.16 2.40 2.56 1.57 1.02 0.85 0.82 0.84 0.56 0.50 0.80 1.04 1.25 1.34 1.27 1.22 1.30 1.29 1.25 1.18 1.09 1.10 1.07 1.05 1.12 1.33 1.59 1.69 1.51 1.24 1.09 1.02 1.07 1.06 1.08 1.20 1.25 1.39 1.44 1.44 1.49 1.49 1.45 1.38 1.47 1.46
2.06 2.38 2.42 2.36 2.29 2.02 1.22 0.93 0.74 0.54 0.55 0.50 0.41 0.61 0.79 0.81 1.01 1.21 1.22 1.24 1.20 1.16 1.18 1.11 1.11 1.14 1.20 1.23 1.33 1.60 1.75 1.70 1.31 1.08 1.02 0.96 0.86 0.96 1.06 1.06 1.38 1.54 1.64 1.63 1.63 1.56 1.46 1.42 1.41
2.11 2.31 2.17 1.77 1.55 1.28 0.99 0.85 0.69 0.72 0.81 0.70 0.53 0.61 0.76 0.82 0.91 1.08 1.12 1.03 0.99 0.98 1.01 1.03 1.02 0.98 0.99 1.03 1.38 1.64 1.50 1.56 1.24 1.15 1.06 1.00 1.05 1.08 0.94 0.95 1.28 1.50 1.66 1.65 1.59 1.57 1.45 1.25 1.08
1.77 1.89 1.56 1.34 1.14 0.92 0.86 0.81 0.62 0.74 0.92 0.73 0.55 0.61 0.74 0.85 0.95 0.97 1.01 0.94 0.88 0.87 0.78 0.76 0.80 0.75 0.76 0.87 1.05 1.34 1.56 1.57 1.49 1.41 1.31 1.26 1.17 1.01 0.91 0.96 1.04 1.21 1.31 1.26 1.35 1.35 1.25 1.14 1.05
1.54 1.48 1.28 1.15 0.86 0.90 0.90 0.76 0.67 0.66 0.70 0.51 0.45 0.52 0.66 0.84 0.98 0.93 0.95 0.95 0.89 0.92 0.91 0.73 0.65 0.65 0.64 0.69 0.84 1.08 1.27 1.37 1.35 1.26 1.14 1.33 1.28 1.07 0.98 1.10 1.17 1.22 1.29 1.45 1.50 1.44 1.32 1.19 1.06
1.43 1.48 1.20 0.98 0.85 0.90 0.84 0.77 0.66 0.67 0.56 0.44 0.44 0.57 0.78 0.92 0.99 1.00 0.94 0.95 0.93 0.94 0.97 0.85 0.66 0.58 0.62 0.66 0.72 0.78 0.99 1.10 1.08 1.21 1.14 1.19 1.20 1.09 1.00 1.03 1.23 1.27 1.33 1.55 1.66 1.49 1.40 1.38 1.30
1.26 1.21 1.16 0.99 0.91 0.93 0.94 0.77 0.66 0.78 0.67 0.56 0.61 0.73 0.89 0.98 0.97 0.93 0.86 0.84 0.83 0.85 0.88 0.83 0.71 0.67 0.66 0.64 0.60 0.60 0.64 0.81 0.83 0.83 0.81 1.00 1.14 1.12 1.14 1.05 1.17 1.36 1.44 1.51 1.55 1.51 1.41 1.36 1.37
1.04 1.12 1.26 1.16 1.11 1.07 0.96 1.03 0.80 0.81 0.80 0.68 0.66 0.72 0.92 0.89 0.88 0.84 0.77 0.70 0.65 0.71 0.75 0.78 0.77 0.76 0.74 0.74 0.71 0.64 0.65 0.68 0.76 0.83 0.83 0.93 1.06 1.14 1.14 1.04 1.10 1.27 1.49 1.49 1.48 1.47 1.48 1.32 1.25
1.20 1.49 1.74 1.42 1.21 1.18 1.08 1.23 0.89 0.88 0.83 0.73 0.69 0.67 0.75 0.67 0.67 0.69 0.65 0.59 0.55 0.54 0.56 0.64 0.66 0.69 0.73 0.77 0.79 0.72 0.75 0.76 0.74 0.81 0.79 0.81 0.96 1.12 1.20 1.15 1.11 1.27 1.50 1.68 1.74 1.65 1.59 1.46 1.37
1.53 1.62 1.56 1.46 1.16 1.17 1.09 1.13 0.96 0.82 0.78 0.68 0.66 0.66 0.62 0.56 0.53 0.56 0.55 0.51 0.44 0.42 0.41 0.46 0.52 0.57 0.65 0.72 0.79 0.76 0.78 0.91 0.98 0.88 0.76 0.81 0.94 1.06 1.27 1.38 1.32 1.34 1.54 1.63 1.63 1.67 1.57 1.55 1.49
1.23 1.23 1.23 1.31 1.09 1.01 0.98 0.92 0.93 0.77 0.62 0.57 0.56 0.57 0.54 0.51 0.44 0.44 0.46 0.47 0.41 0.38 0.35 0.38 0.47 0.49 0.50 0.61 0.76 0.85 0.81 0.88 1.09 1.13 1.14 1.17 1.22 1.26 1.43 1.54 1.55 1.55 1.63 1.63 1.76 1.94 1.75 1.57 1.56
0.90 0.91 0.97 0.89 0.75 0.87 0.87 0.82 0.86 0.80 0.65 0.51 0.49 0.52 0.48 0.45 0.46 0.39 0.36 0.43 0.42 0.35 0.31 0.35 0.42 0.45 0.46 0.52 0.64 0.74 0.82 1.00 1.20 1.26 1.33 1.47 1.49 1.50 1.63 1.74 1.80 1.74 1.66 1.74 1.91 2.28 2.14 1.78 1.61
0.83 0.82 0.86 0.76 0.66 0.70 0.78 0.83 0.81 0.74 0.67 0.55 0.48 0.40 0.39 0.39 0.37 0.32 0.30 0.33 0.34 0.31 0.29 0.30 0.39 0.49 0.54 0.57 0.70 0.85 1.06 1.18 1.33 1.49 1.48 1.51 1.56 1.60 1.68 1.90 2.02 1.96 1.95 2.03 2.08 2.34 2.49 2.20 2.00
0.81 0.75 0.69 0.72 0.69 0.66 0.72 0.93 0.88 0.80 0.66 0.55 0.46 0.37 0.30 0.33 0.32 0.25 0.26 0.29 0.29 0.28 0.32 0.33 0.43 0.65 0.84 0.92 1.13 1.40 1.65 1.72 1.65 1.66 1.71 1.70 1.72 1.79 1.76 1.88 2.08 2.07 2.06 2.11 2.28 2.60 2.91 2.83 2.54
0.82 0.58 0.50 0.62 0.75 0.84 0.70 0.98 0.84 0.77 0.70 0.54 0.45 0.40 0.33 0.35 0.39 0.29 0.28 0.31 0.28 0.31 0.41 0.58 0.76 1.06 1.30 1.41 1.58 1.80 1.90 1.94 1.87 1.89 1.89 1.87 1.77 1.69 1.69 1.82 2.02 2.18 2.30 2.39 2.45 2.45 2.83 3.09 2.90
0.65 0.52 0.51 0.61 0.73 0.75 0.63 0.76 0.72 0.62 0.69 0.59 0.54 0.49 0.43 0.42 0.42 0.42 0.41 0.46 0.47 0.56 0.76 1.08 1.32 1.52 1.65 1.69 1.76 1.94 2.08 2.24 2.26 2.16 2.02 1.91 1.87 1.79 1.70 1.75 1.82 1.87 1.99 2.14 2.27 2.35 2.59 2.78 2.93
0.52 0.59 0.63 0.65 0.74 0.85 0.59 0.60 0.72 0.60 0.57 0.60 0.61 0.53 0.48 0.45 0.46 0.56 0.68 0.80 0.90 0.99 1.18 1.40 1.52 1.65 1.63 1.62 1.65 1.77 1.94 2.11 2.14 2.17 2.15 2.02 1.89 1.78 1.67 1.61 1.70 1.73 1.74 1.90 2.02 2.13 2.39 2.57 2.71
0.57 0.75 0.96 0.97 0.94 0.81 0.49 0.58 0.62 0.44 0.41 0.49 0.54 0.53 0.50 0.47 0.55 0.75 0.91 1.06 1.17 1.27 1.37 1.40 1.38 1.42 1.44 1.42 1.43 1.49 1.55 1.59 1.66 1.77 1.71 1.58 1.47 1.41 1.39 1.31 1.37 1.50 1.56 1.75 1.84 1.79 1.85 2.04 2.27
0.53 0.57 0.83 0.94 0.83 0.71 0.54 0.71 0.64 0.46 0.43 0.41 0.45 0.53 0.60 0.70 0.82 0.94 1.05 1.16 1.20 1.32 1.36 1.31 1.27 1.25 1.17 1.12 1.14 1.14 1.18 1.23 1.25 1.27 1.23 1.16 1.11 1.08 1.05 1.05 1.06 1.13 1.21 1.43 1.66 1.66 1.67 1.73 1.83
0.45 0.44 0.46 0.64 0.62 0.66 0.60 0.70 0.64 0.44 0.42 0.40 0.42 0.52 0.66 0.83 1.07 1.25 1.25 1.16 1.08 1.13 1.20 1.16 1.10 1.04 0.95 0.89 0.92 0.93 0.99 1.01 0.98 0.96 0.90 0.90 0.84 0.84 0.82 0.85 0.95 1.01 1.00 1.11 1.25 1.44 1.51 1.58 1.65
0.35 0.38 0.48 0.71 0.83 0.85 0.72 0.78 0.73 0.55 0.49 0.46 0.50 0.62 0.78 0.94 1.15 1.42 1.53 1.41 1.15 0.98 1.01 0.97 0.93 0.94 0.92 0.87 0.89 0.88 0.80 0.73 0.72 0.74 0.68 0.67 0.72 0.75 0.75 0.73 0.74 0.82 0.85 0.95 1.08 1.14 1.23 1.32 1.48
0.35 0.40 0.50 0.66 0.67 0.89 1.14 1.13 0.84 0.73 0.66 0.65 0.69 0.75 0.82 1.06 1.36 1.48 1.50 1.37 1.19 0.93 0.86 0.84 0.82 0.84 0.88 0.82 0.85 0.86 0.75 0.61 0.57 0.54 0.50 0.51 0.55 0.59 0.60 0.62 0.69 0.72 0.75 0.77 0.79 0.84 0.91 0.98 1.09
0.32 0.40 0.54 0.82 0.83 0.79 1.00 1.04 0.67 0.70 0.81 0.76 0.82 0.91 0.93 1.00 1.03 1.01 1.10 1.11 1.04 0.91 0.84 0.90 0.94 0.93 0.84 0.77 0.77 0.78 0.71 0.60 0.60 0.53 0.45 0.47 0.53 0.55 0.54 0.59 0.62 0.63 0.70 0.73 0.72 0.71 0.75 0.86 0.94